Location: Bremen
(53.0793°N, 8.8017°E)
Time: 12:51:22
(UTC+02:00)

Transit 2A Rocket - Pass Details

Date: 21 June 2024
Orbit: 582 x 910 km, 66.7° (Epoch: 19 July)

Event Time Altitude Azimuth Distance (km) Brightness Sun altitude
Rises 02:18:01 0° 295° (WNW) 3,333 8.5 -12.7°
Reaches altitude 10° 02:21:00 10° 311° (NW) 2,457 8.0 -12.6°
Maximum altitude 02:25:19 21° 0° (N) 1,846 8.0 -12.4°
Drops below altitude 10° 02:29:49 10° 49° (NE) 2,575 8.6 -12.3°
Sets 02:33:02 0° 64° (ENE) 3,539 9.1 -12.1°
